OneWeb SL0248

operational
NORAD ID: 48798 Int'l Des: 2021-045 Owner: ONEWEBN Country: UK Constellation: oneweb
LEOCIRCULARPOLARONEWEB_TYPE

About OneWeb SL0248

Description loading...

Live Position

Loading 3D Globe...

Upcoming Passes

Altitude History

Altitude vs Time

uPlot chart will show altitude changes over time

Two-Line Element Set

1 48798U 21045AH 26015.76962926 -.00000029 00000-0 -11157-3 0 9990
2 48798 87.9015 289.6044 0001028 69.1843 290.9398 13.15549926224376
Epoch: Jan 15, 2026 • Age: 16 hours

Current Status

Altitude 1223.2 km
Velocity 7.24 km/s
Sub-Earth Point -53.16°S, 157.43°W
Launch Date May 28, 2021
Age 4.6 years
Type internet

Technical Details

Classification Payload
Mass 148.00 kg
Dry Mass 140.00 kg
Total Mass 148.00 kg
Length 1.30 m
Diameter 1.00 m
Span 5.00 m
Shape Trapezoid+2 pan
Manufacturer ONEWUS
Bus Type ARROW
Phase Status In Orbit
Owner/State ONEWEBN/UK

Large Constellations

Loading constellations...